Weather History for Liberal, KS

Change the Weather History Date:

Tuesday, August 13, 2013

  Actual Average Record
Temperature  
Mean Temperature 73 °F -  
Max Temperature 84 °F 91 °F 104 °F (1945)
Min Temperature 62 °F 64 °F 53 °F (2004)
Cooling Degree Days 8    
Growing Degree Days 23 (Base 50)    
Moisture  
Dew Point 60 °F    
Average Humidity 67    
Maximum Humidity 88    
Minimum Humidity 45    
Precipitation  
Precipitation 0.01 in - - ()
Sea Level Pressure  
Sea Level Pressure 30.15 in    
Wind  
Wind Speed 11 mph (NE)    
Max Wind Speed 24 mph    
Max Gust Speed 28 mph    
Visibility 10 miles    
Events      
Averages and records for this station are not official NWS values.
T = Trace of Precipitation, MM = Missing Value Source: NWS Daily Summary

Daily Weather History Graph

Daily Weather History Graph

Search for Another Location

Airport:

Trip Planner

Search our weather history database for the weather conditions in past years. The results will help you decide how hot, cold, wet, or windy it might be!

Date:

Astronomy

Aug. 13, 2013 Rise Set
Actual Time 6:59 AM CDT 8:37 PM CDT
Civil Twilight 6:31 AM CDT 9:05 PM CDT
Nautical Twilight 5:57 AM CDT 9:38 PM CDT
Astronomical Twilight 5:22 AM CDT 10:13 PM CDT
Moon 1:44 PM CDT (8/13) No Moon Set
Length of Visible Light 14h 33m
Length of Day
13h 38m
Waxing Crescent, 42% of the Moon is Illuminated
Aug 13
Waxing Crescent
Aug 14
First Quarter
Aug 20
Full
Aug 28
Last Quarter
Sep 5
New

Hourly Weather History & Observations

Time (CDT) Temp. Heat Index Dew Point Humidity Pressure Visibility Wind Dir Wind Speed Gust Speed Precip Events Conditions
12:15 AM 71.6 °F - 60.8 °F 69% 30.15 in 10.0 mi NNE 20.7 mph - N/A   Overcast
12:35 AM 69.8 °F - 60.8 °F 73% 30.16 in 10.0 mi North 20.7 mph - N/A   Mostly Cloudy
12:55 AM 68.0 °F - 59.0 °F 73% 30.16 in 10.0 mi NNE 18.4 mph - N/A   Mostly Cloudy
1:15 AM 68.0 °F - 57.2 °F 68% 30.16 in 10.0 mi NE 13.8 mph - N/A   Overcast
1:35 AM 68.0 °F - 57.2 °F 68% 30.16 in 10.0 mi NNE 18.4 mph - N/A   Mostly Cloudy
1:55 AM 66.2 °F - 57.2 °F 73% 30.15 in 10.0 mi NNE 17.3 mph - N/A   Mostly Cloudy
2:15 AM 66.2 °F - 59.0 °F 78% 30.15 in 10.0 mi North 13.8 mph - N/A   Overcast
2:35 AM 66.2 °F - 60.8 °F 83% 30.15 in 10.0 mi NNE 11.5 mph - N/A   Mostly Cloudy
2:55 AM 66.2 °F - 60.8 °F 83% 30.14 in 10.0 mi NNE 9.2 mph - 0.01 in   Partly Cloudy
3:15 AM 66.2 °F - 60.8 °F 83% 30.13 in 10.0 mi ENE 3.5 mph - N/A   Clear
3:35 AM 66.2 °F - 60.8 °F 83% 30.13 in 10.0 mi Calm Calm - N/A   Clear
3:55 AM 66.2 °F - 60.8 °F 83% 30.11 in 10.0 mi SSE 4.6 mph - N/A   Clear
4:15 AM 66.2 °F - 60.8 °F 83% 30.10 in 10.0 mi SSE 5.8 mph - N/A   Clear
4:35 AM 64.4 °F - 60.8 °F 88% 30.11 in 10.0 mi South 5.8 mph - N/A   Clear
4:55 AM 64.4 °F - 60.8 °F 88% 30.11 in 10.0 mi South 6.9 mph - N/A   Clear
5:15 AM 64.4 °F - 59.0 °F 83% 30.12 in 10.0 mi South 8.1 mph - N/A   Clear
5:35 AM 64.4 °F - 59.0 °F 83% 30.11 in 10.0 mi SSW 5.8 mph - N/A   Clear
5:55 AM 62.6 °F - 57.2 °F 82% 30.12 in 10.0 mi WSW 6.9 mph - N/A   Clear
6:15 AM 62.6 °F - 57.2 °F 82% 30.12 in 10.0 mi WSW 6.9 mph - N/A   Clear
6:35 AM 62.6 °F - 57.2 °F 82% 30.12 in 10.0 mi West 8.1 mph - N/A   Clear
6:55 AM 62.6 °F - 57.2 °F 82% 30.14 in 10.0 mi NW 11.5 mph - N/A   Clear
7:15 AM 62.6 °F - 59.0 °F 88% 30.16 in 10.0 mi NW 11.5 mph - N/A   Partly Cloudy
7:35 AM 64.4 °F - 59.0 °F 83% 30.16 in 10.0 mi NW 10.4 mph - N/A   Mostly Cloudy
7:55 AM 64.4 °F - 60.8 °F 88% 30.16 in 10.0 mi NW 9.2 mph - N/A   Overcast
8:15 AM 66.2 °F - 60.8 °F 83% 30.16 in 10.0 mi NW 10.4 mph - N/A   Overcast
8:35 AM 68.0 °F - 62.6 °F 83% 30.18 in 10.0 mi NNW 13.8 mph - N/A   Mostly Cloudy
8:55 AM 68.0 °F - 62.6 °F 83% 30.18 in 10.0 mi North 13.8 mph - N/A   Overcast
9:15 AM 66.2 °F - 60.8 °F 83% 30.19 in 10.0 mi North 9.2 mph - N/A   Overcast
9:35 AM 69.8 °F - 62.6 °F 78% 30.19 in 10.0 mi North 11.5 mph - N/A   Overcast
9:55 AM 69.8 °F - 62.6 °F 78% 30.19 in 10.0 mi North 10.4 mph - N/A   Overcast
10:15 AM 71.6 °F - 62.6 °F 73% 30.19 in 10.0 mi NNW 9.2 mph - N/A   Overcast
10:35 AM 71.6 °F - 62.6 °F 73% 30.19 in 10.0 mi North 10.4 mph - N/A   Mostly Cloudy
10:55 AM 73.4 °F - 62.6 °F 69% 30.19 in 10.0 mi North 11.5 mph 16.1 mph N/A   Mostly Cloudy
11:15 AM 75.2 °F - 62.6 °F 65% 30.20 in 10.0 mi NNE 9.2 mph - N/A   Mostly Cloudy
11:35 AM 73.4 °F - 62.6 °F 69% 30.19 in 10.0 mi North 8.1 mph - N/A   Mostly Cloudy
11:55 AM 75.2 °F - 62.6 °F 65% 30.19 in 10.0 mi North 6.9 mph - N/A   Mostly Cloudy
12:15 PM 75.2 °F - 60.8 °F 61% 30.19 in 10.0 mi NNE 4.6 mph - N/A   Mostly Cloudy
12:35 PM 75.2 °F - 60.8 °F 61% 30.19 in 10.0 mi NNE 3.5 mph - N/A   Mostly Cloudy
12:55 PM 75.2 °F - 60.8 °F 61% 30.18 in 10.0 mi NW 5.8 mph - N/A   Mostly Cloudy
1:15 PM 78.8 °F - 60.8 °F 54% 30.17 in 10.0 mi ENE 5.8 mph - N/A   Partly Cloudy
1:35 PM 78.8 °F - 60.8 °F 54% 30.17 in 10.0 mi East 6.9 mph - N/A   Partly Cloudy
1:55 PM 78.8 °F - 60.8 °F 54% 30.16 in 10.0 mi Calm Calm - N/A   Mostly Cloudy
2:15 PM 80.6 °F 81.5 °F 60.8 °F 51% 30.16 in 10.0 mi Calm Calm - N/A   Partly Cloudy
2:35 PM 80.6 °F 81.5 °F 60.8 °F 51% 30.16 in 10.0 mi Calm Calm - N/A   Partly Cloudy
2:55 PM 82.4 °F 82.9 °F 60.8 °F 48% 30.15 in 10.0 mi East 5.8 mph - N/A   Partly Cloudy
3:15 PM 80.6 °F 81.1 °F 59.0 °F 48% 30.14 in 10.0 mi Calm Calm - N/A   Partly Cloudy
3:35 PM 82.4 °F 82.9 °F 60.8 °F 48% 30.14 in 10.0 mi NE 4.6 mph - N/A   Scattered Clouds
3:55 PM 82.4 °F 82.9 °F 60.8 °F 48% 30.13 in 10.0 mi ENE 5.8 mph - N/A   Mostly Cloudy
4:15 PM 84.2 °F 84.4 °F 60.8 °F 45% 30.13 in 10.0 mi ENE 8.1 mph - N/A   Mostly Cloudy
4:35 PM 82.4 °F 82.9 °F 60.8 °F 48% 30.12 in 10.0 mi East 4.6 mph - N/A   Mostly Cloudy
4:55 PM 82.4 °F 82.9 °F 60.8 °F 48% 30.12 in 10.0 mi NE 10.4 mph - N/A   Scattered Clouds
5:15 PM 82.4 °F 82.9 °F 60.8 °F 48% 30.11 in 10.0 mi NNE 5.8 mph - N/A   Scattered Clouds
5:35 PM 82.4 °F 82.9 °F 60.8 °F 48% 30.11 in 10.0 mi NE 10.4 mph - N/A   Overcast
5:55 PM 82.4 °F 82.9 °F 60.8 °F 48% 30.11 in 10.0 mi East 6.9 mph - N/A   Scattered Clouds
6:15 PM 82.4 °F 82.9 °F 60.8 °F 48% 30.10 in 10.0 mi ENE 10.4 mph - N/A   Mostly Cloudy
6:35 PM 80.6 °F 81.1 °F 59.0 °F 48% 30.11 in 10.0 mi East 6.9 mph - N/A   Scattered Clouds
6:55 PM 82.4 °F 82.9 °F 60.8 °F 48% 30.12 in 10.0 mi ENE 10.4 mph - N/A   Partly Cloudy
7:15 PM 82.4 °F 82.9 °F 60.8 °F 48% 30.12 in 10.0 mi East 10.4 mph - N/A   Clear
7:35 PM 80.6 °F 81.5 °F 60.8 °F 51% 30.12 in 10.0 mi East 9.2 mph - N/A   Clear
7:55 PM 80.6 °F 81.1 °F 59.0 °F 48% 30.12 in 10.0 mi East 11.5 mph - N/A   Partly Cloudy
8:15 PM 80.6 °F 81.5 °F 60.8 °F 51% 30.12 in 10.0 mi East 9.2 mph - N/A   Mostly Cloudy
8:35 PM 80.6 °F 81.1 °F 59.0 °F 48% 30.13 in 10.0 mi East 11.5 mph - N/A   Overcast
8:55 PM 78.8 °F - 60.8 °F 54% 30.13 in 10.0 mi East 12.7 mph - N/A   Scattered Clouds
9:15 PM 73.4 °F - 59.0 °F 61% 30.15 in 10.0 mi East 24.2 mph 27.6 mph N/A   Mostly Cloudy
9:35 PM 69.8 °F - 57.2 °F 64% 30.17 in 10.0 mi East 18.4 mph - N/A   Mostly Cloudy
9:55 PM 69.8 °F - 57.2 °F 64% 30.18 in 10.0 mi East 15.0 mph 24.2 mph N/A   Mostly Cloudy
10:15 PM 68.0 °F - 57.2 °F 68% 30.19 in 10.0 mi East 16.1 mph 20.7 mph N/A   Partly Cloudy
10:35 PM 68.0 °F - 57.2 °F 68% 30.20 in 10.0 mi East 18.4 mph - N/A   Clear
10:55 PM 66.2 °F - 57.2 °F 73% 30.21 in 10.0 mi East 11.5 mph - N/A   Clear
11:15 PM 66.2 °F - 57.2 °F 73% 30.21 in 10.0 mi East 11.5 mph - N/A   Clear
11:35 PM 66.2 °F - 57.2 °F 73% 30.21 in 10.0 mi ESE 11.5 mph - N/A   Clear
11:55 PM 66.2 °F - 57.2 °F 73% 30.20 in 10.0 mi ESE 9.2 mph - N/A   Clear